TimeCST,TemperatureF,Dew PointF,Humidity,Sea Level PressureIn,VisibilityMPH,Wind Direction,Wind SpeedMPH,Gust SpeedMPH,PrecipitationIn,Events,Conditions,WindDirDegrees,DateUTC
12:53 AM,32.0,21.9,66,30.39,10.0,Calm,Calm,-,N/A,,Clear,0,2013-02-02 06:53:00
1:53 AM,30.9,21.9,69,30.38,10.0,Calm,Calm,-,N/A,,Clear,0,2013-02-02 07:53:00
2:53 AM,30.9,21.9,69,30.38,10.0,Calm,Calm,-,N/A,,Clear,0,2013-02-02 08:53:00
3:53 AM,30.9,21.0,67,30.37,10.0,Calm,Calm,-,N/A,,Clear,0,2013-02-02 09:53:00
4:53 AM,28.0,21.9,78,30.36,10.0,ESE,3.5,-,N/A,,Clear,110,2013-02-02 10:53:00
5:53 AM,30.0,19.9,66,30.37,10.0,Calm,Calm,-,N/A,,Clear,0,2013-02-02 11:53:00
6:53 AM,28.9,21.0,72,30.36,10.0,Calm,Calm,-,N/A,,Clear,0,2013-02-02 12:53:00
7:53 AM,35.1,24.1,64,30.37,10.0,Calm,Calm,-,N/A,,Clear,0,2013-02-02 13:53:00
8:53 AM,41.0,23.0,49,30.35,10.0,South,6.9,-,N/A,,Clear,170,2013-02-02 14:53:00
9:53 AM,46.9,19.9,34,30.35,10.0,SSE,6.9,-,N/A,,Clear,160,2013-02-02 15:53:00
10:53 AM,54.0,19.9,26,30.32,10.0,SSW,5.8,-,N/A,,Clear,210,2013-02-02 16:53:00
11:53 AM,57.9,23.0,26,30.27,10.0,South,6.9,-,N/A,,Clear,190,2013-02-02 17:53:00
12:53 PM,62.1,23.0,22,30.23,10.0,SW,9.2,-,N/A,,Clear,220,2013-02-02 18:53:00
1:53 PM,64.0,25.0,23,30.20,10.0,SW,6.9,17.3,N/A,,Clear,220,2013-02-02 19:53:00
2:53 PM,64.9,30.0,27,30.17,10.0,WSW,10.4,-,N/A,,Clear,240,2013-02-02 20:53:00
3:53 PM,64.0,34.0,33,30.16,10.0,WSW,11.5,-,N/A,,Partly Cloudy,250,2013-02-02 21:53:00
4:53 PM,62.1,37.0,39,30.17,10.0,WSW,4.6,-,N/A,,Overcast,250,2013-02-02 22:53:00
5:53 PM,60.1,37.9,44,30.15,10.0,WSW,4.6,-,0.00,,Overcast,250,2013-02-02 23:53:00
6:53 PM,59.0,41.0,51,30.17,10.0,WSW,6.9,-,N/A,,Overcast,240,2013-02-03 00:53:00
7:53 PM,57.0,44.1,62,30.18,10.0,WNW,9.2,-,0.00,,Overcast,290,2013-02-03 01:53:00
8:53 PM,53.1,46.9,80,30.20,7.0,NW,3.5,-,0.03,Rain,Light Rain,320,2013-02-03 02:53:00
9:53 PM,51.1,48.9,92,30.19,10.0,Calm,Calm,-,0.00,,Overcast,0,2013-02-03 03:53:00
10:26 PM,51.8,48.2,88,30.20,10.0,West,4.6,-,N/A,,Overcast,260,2013-02-03 04:26:00
10:43 PM,51.8,48.2,88,30.21,10.0,West,5.8,-,N/A,,Overcast,280,2013-02-03 04:43:00
10:53 PM,50.0,46.0,86,30.20,10.0,WNW,4.6,-,N/A,,Overcast,290,2013-02-03 04:53:00
11:53 PM,50.0,45.0,83,30.22,10.0,NW,9.2,-,N/A,,Overcast,320,2013-02-03 05:53:00